星链-3051 (STARLINK-3051 )

导读 | 豆包AI

STARLINK-3051是美国于2021年9月14日发射的星链系列卫星,隶属于SpaceX公司主导的星链互联网卫星星座项目。星链旨在为全球提供高速低延迟宽带互联网服务,该卫星入轨后,承担为覆盖区域提供互联网接入服务的任务,推进了星链星座全球组网进程。

基本信息
目录编号:
49157
目录名称:
STARLINK-3051
国际标识:
2021-082AD
轨道中心:
EARTH
卫星名称:
星链-3051
卫星全名:
星链-3051 (STARLINK-3051 )
卫星状态:
在轨 (已飞行1642 天)
发射日期:
2021-09-14 UTC
国别 :
美国 (US)
星等 :
--
轨道信息
数据来源 国际轨道数据 AOE轨道数据
星历时间 2026-03-14T14:16:11+0800
11小时前
查看轨道信息
2026-03-10T04:00:00+0800
4天前
查看轨道信息
半长轴 6930.734km 6930.899km
偏心率 0.0006377 0.0006782
轨道倾角 69.997° 69.997°
近地点辐角 259.272° 263.364°
升交点赤经 260.133° 271.408°
平近点角 100.773° 239.055°
近地点 548.177km 548.061km
远地点 557.017km 557.463km
周期 95.704分钟 95.707分钟
每日圈数 15.046448 15.045909
详细信息
固有亮度:
5
最大亮度:
2.5
卫星平台:
Starlink v1.5
覆盖范围:
全球
运营商:
太空探索技术公司
运营商所在国:
美国
制造商(研发单位):
太空探索技术公司
制造商所在国:
美国
使用方式:
暂无
卫星简介
星链(Starlink)计划是由太空探索技术公司(SpaceX)提出的一个巨型低轨卫星互联网星座项目,计划在2019年至2024年间在太空搭建由约1.2万颗卫星组成的“星链”网络,其中1584颗将部署在地球上空550千米处的近地轨道,并从2020年开始工作。该卫星仍在工作。
2D轨道图
3D轨道图
轨道高度分析图
轨道倾角分析图
轨道综合分析图
查看轨道综合分析图